GFSSE_prec_precacc24_057.txt.gz
Total_Precipitation_Accumulation
0.09 0.33 0.39 0.24 0.07 0.04 0.03 0.05 0.13 0.11 0.08 0.01 0.00 0.00 0.00 0.01 0.03 0.02 0.01 0.00 0.00 0.00 0.00 0.01 0.00 0.00 0.00 0.00 0.00 0.00 0.01 0.06 0.19 0.10 0.08 0.08 0.07 0.15 0.08 0.15 0.08 0.02 0.12
0.01 0.15 0.24 0.19 0.15 0.10 0.07 0.05 0.08 0.07 0.07 0.01 0.01 0.01 0.03 0.09 0.10 0.04 0.02 0.14 0.10 0.06 0.03 0.02 0.01 0.00 0.00 0.01 0.00 0.01 0.01 0.04 0.16 0.15 0.19 0.09 0.19 0.29 0.25 0.24 0.15 0.06 0.12
0.00 0.06 0.05 0.25 0.16 0.11 0.07 0.04 0.03 0.02 0.02 0.02 0.05 0.09 0.09 0.07 0.08 0.11 0.03 0.07 0.08 0.08 0.05 0.03 0.05 0.07 0.05 0.04 0.06 0.05 0.08 0.13 0.23 0.48 0.52 0.22 0.11 0.45 0.29 0.12 0.13 0.18 0.09
0.00 0.03 0.01 0.12 0.13 0.08 0.05 0.03 0.05 0.02 0.06 0.12 0.15 0.11 0.07 0.16 0.13 0.18 0.09 0.10 0.13 0.12 0.15 0.19 0.14 0.09 0.08 0.13 0.16 0.29 0.19 0.12 0.21 0.35 0.18 0.07 0.09 0.42 0.11 0.10 0.10 0.12 0.06
0.00 0.02 0.01 0.05 0.05 0.04 0.03 0.05 0.05 0.02 0.05 0.10 0.16 0.12 0.09 0.14 0.12 0.11 0.09 0.04 0.04 0.04 0.03 0.02 0.01 0.02 0.10 0.23 0.17 0.15 0.21 0.13 0.31 0.35 0.10 0.22 0.14 0.17 0.16 0.22 0.25 0.10 0.08
0.01 0.00 0.01 0.03 0.03 0.03 0.09 0.06 0.03 0.04 0.06 0.09 0.10 0.05 0.13 0.14 0.19 0.04 0.03 0.04 0.01 0.02 0.01 0.01 0.01 0.03 0.01 0.11 0.18 0.21 0.22 0.27 0.36 0.17 0.02 0.20 0.28 0.24 0.20 0.13 0.07 0.05 0.08
0.00 0.00 0.01 0.09 0.04 0.04 0.05 0.03 0.05 0.06 0.09 0.08 0.07 0.09 0.14 0.08 0.08 0.03 0.03 0.02 0.00 0.01 0.02 0.05 0.04 0.04 0.08 0.20 0.19 0.26 0.27 0.22 0.11 0.03 0.02 0.29 0.14 0.28 0.07 0.04 0.04 0.06 0.07
0.00 0.00 0.02 0.05 0.05 0.08 0.03 0.06 0.04 0.04 0.05 0.10 0.12 0.10 0.08 0.05 0.05 0.02 0.01 0.00 0.00 0.00 0.00 0.02 0.13 0.08 0.04 0.19 0.20 0.22 0.27 0.11 0.04 0.02 0.11 0.14 0.08 0.18 0.09 0.09 0.05 0.08 0.05
0.00 0.00 0.02 0.01 0.06 0.08 0.07 0.09 0.04 0.06 0.07 0.09 0.07 0.09 0.04 0.02 0.00 0.00 0.01 0.00 0.00 0.00 0.00 0.02 0.04 0.04 0.07 0.10 0.17 0.10 0.26 0.07 0.02 0.01 0.00 0.00 0.11 0.15 0.09 0.09 0.10 0.05 0.07
0.00 0.01 0.00 0.01 0.02 0.03 0.06 0.13 0.04 0.05 0.06 0.09 0.03 0.02 0.03 0.01 0.04 0.03 0.05 0.03 0.00 0.00 0.00 0.02 0.03 0.03 0.06 0.13 0.19 0.13 0.25 0.16 0.03 0.02 0.00 0.01 0.13 0.12 0.06 0.08 0.09 0.06 0.05
0.01 0.00 0.00 0.02 0.01 0.10 0.03 0.08 0.08 0.07 0.07 0.02 0.01 0.05 0.10 0.01 0.02 0.03 0.07 0.03 0.01 0.02 0.05 0.05 0.01 0.04 0.04 0.04 0.12 0.27 0.16 0.11 0.12 0.00 0.00 0.02 0.15 0.08 0.06 0.05 0.04 0.03 0.02
0.00 0.01 0.00 0.00 0.00 0.07 0.02 0.06 0.09 0.02 0.02 0.02 0.04 0.05 0.07 0.04 0.03 0.01 0.06 0.11 0.05 0.07 0.09 0.11 0.07 0.26 0.48 0.16 0.04 0.15 0.11 0.05 0.08 0.00 0.01 0.03 0.06 0.04 0.03 0.02 0.02 0.02 0.04
0.00 0.00 0.00 0.00 0.00 0.01 0.02 0.01 0.03 0.01 0.00 0.01 0.04 0.11 0.05 0.02 0.01 0.00 0.01 0.06 0.07 0.06 0.12 0.34 0.09 0.27 0.88 0.36 0.06 0.05 0.03 0.01 0.03 0.00 0.01 0.01 0.03 0.02 0.02 0.02 0.02 0.01 0.02
0.00 0.00 0.00 0.00 0.01 0.15 0.01 0.00 0.09 0.05 0.01 0.00 0.01 0.03 0.04 0.02 0.00 0.01 0.05 0.08 0.15 0.05 0.07 0.24 0.04 0.04 0.16 0.20 0.03 0.02 0.02 0.03 0.00 0.00 0.00 0.02 0.09 0.03 0.02 0.01 0.02 0.01 0.00
0.00 0.00 0.00 0.00 0.05 0.16 0.03 0.03 0.06 0.03 0.05 0.00 0.00 0.04 0.14 0.02 0.02 0.04 0.09 0.05 0.10 0.08 0.07 0.05 0.02 0.02 0.01 0.00 0.00 0.01 0.01 0.01 0.00 0.00 0.00 0.03 0.07 0.17 0.04 0.02 0.03 0.00 0.00
0.00 0.00 0.00 0.00 0.02 0.05 0.03 0.02 0.01 0.01 0.01 0.00 0.00 0.04 0.21 0.13 0.21 0.28 0.23 0.11 0.11 0.11 0.03 0.02 0.02 0.04 0.01 0.00 0.00 0.00 0.00 0.00 0.00 0.00 0.00 0.03 0.05 0.10 0.11 0.02 0.00 0.00 0.00
0.00 0.00 0.00 0.00 0.00 0.01 0.02 0.03 0.01 0.00 0.01 0.00 0.00 0.00 0.02 0.18 0.25 0.22 0.19 0.23 0.16 0.05 0.01 0.03 0.00 0.00 0.00 0.00 0.00 0.00 0.00 0.00 0.00 0.00 0.00 0.02 0.03 0.05 0.14 0.22 0.08 0.01 0.02
0.00 0.00 0.00 0.00 0.00 0.00 0.00 0.01 0.03 0.00 0.00 0.00 0.00 0.01 0.01 0.09 0.16 0.21 0.15 0.13 0.06 0.06 0.04 0.05 0.01 0.00 0.00 0.00 0.00 0.00 0.00 0.00 0.00 0.00 0.00 0.00 0.00 0.00 0.05 0.14 0.25 0.14 0.15
0.00 0.00 0.00 0.00 0.00 0.00 0.00 0.00 0.01 0.00 0.00 0.01 0.00 0.00 0.00 0.00 0.06 0.39 0.32 0.23 0.10 0.13 0.08 0.03 0.04 0.01 0.00 0.00 0.00 0.00 0.00 0.00 0.00 0.00 0.00 0.00 0.00 0.00 0.00 0.06 0.11 0.15 0.17
0.00 0.00 0.00 0.00 0.00 0.00 0.00 0.00 0.00 0.00 0.00 0.00 0.01 0.00 0.00 0.01 0.07 0.28 0.28 0.29 0.19 0.14 0.23 0.14 0.02 0.00 0.00 0.00 0.00 0.00 0.00 0.00 0.00 0.00 0.00 0.00 0.00 0.00 0.00 0.00 0.02 0.03 0.03
0.00 0.00 0.00 0.00 0.00 0.00 0.00 0.00 0.00 0.00 0.00 0.01 0.00 0.00 0.00 0.01 0.01 0.16 0.22 0.20 0.15 0.10 0.08 0.06 0.00 0.00 0.00 0.00 0.00 0.00 0.00 0.00 0.00 0.00 0.00 0.00 0.00 0.00 0.00 0.00 0.00 0.00 0.00
0.00 0.00 0.00 0.00 0.01 0.00 0.00 0.00 0.00 0.00 0.00 0.00 0.02 0.04 0.00 0.00 0.00 0.04 0.09 0.14 0.17 0.12 0.13 0.09 0.04 0.01 0.00 0.00 0.00 0.00 0.00 0.00 0.00 0.00 0.00 0.00 0.00 0.00 0.00 0.00 0.00 0.00 0.00
0.00 0.00 0.00 0.00 0.00 0.00 0.00 0.00 0.00 0.00 0.00 0.00 0.02 0.01 0.00 0.00 0.00 0.02 0.06 0.11 0.15 0.18 0.11 0.06 0.01 0.00 0.00 0.00 0.00 0.00 0.00 0.00 0.00 0.00 0.00 0.00 0.00 0.00 0.00 0.00 0.00 0.00 0.00
0.00 0.00 0.00 0.00 0.00 0.00 0.00 0.00 0.00 0.00 0.00 0.00 0.00 0.00 0.01 0.00 0.00 0.00 0.07 0.14 0.16 0.18 0.15 0.06 0.01 0.00 0.00 0.00 0.00 0.00 0.00 0.00 0.00 0.00 0.00 0.00 0.00 0.00 0.00 0.00 0.00 0.00 0.00
0.00 0.00 0.00 0.00 0.00 0.00 0.00 0.00 0.00 0.00 0.00 0.00 0.00 0.00 0.02 0.01 0.00 0.00 0.05 0.10 0.10 0.12 0.15 0.11 0.08 0.00 0.01 0.00 0.00 0.00 0.00 0.00 0.00 0.00 0.00 0.00 0.00 0.00 0.00 0.00 0.00 0.00 0.00
0.00 0.00 0.00 0.00 0.00 0.00 0.00 0.00 0.00 0.00 0.00 0.00 0.00 0.00 0.00 0.00 0.00 0.01 0.01 0.02 0.07 0.07 0.10 0.10 0.11 0.03 0.01 0.01 0.00 0.00 0.00 0.00 0.00 0.00 0.00 0.00 0.00 0.00 0.00 0.00 0.00 0.00 0.00

GFSSE_prec_precacc24_060.txt.gz
Total_Precipitation_Accumulation
0.09 0.30 0.32 0.22 0.07 0.04 0.04 0.06 0.13 0.11 0.08 0.01 0.00 0.00 0.00 0.01 0.03 0.02 0.01 0.00 0.00 0.00 0.00 0.01 0.00 0.00 0.00 0.00 0.00 0.00 0.01 0.06 0.19 0.10 0.08 0.08 0.08 0.16 0.09 0.12 0.08 0.02 0.10
0.01 0.13 0.20 0.17 0.14 0.09 0.07 0.07 0.10 0.07 0.07 0.01 0.01 0.01 0.03 0.09 0.10 0.04 0.02 0.13 0.10 0.06 0.03 0.02 0.01 0.00 0.00 0.01 0.01 0.02 0.01 0.05 0.16 0.15 0.19 0.08 0.18 0.29 0.18 0.18 0.15 0.05 0.11
0.00 0.05 0.04 0.23 0.16 0.12 0.07 0.07 0.04 0.02 0.02 0.02 0.05 0.09 0.09 0.08 0.10 0.13 0.03 0.07 0.09 0.08 0.05 0.04 0.06 0.07 0.05 0.04 0.07 0.07 0.08 0.15 0.22 0.48 0.52 0.22 0.11 0.38 0.18 0.07 0.11 0.16 0.08
0.00 0.03 0.01 0.11 0.14 0.09 0.05 0.04 0.06 0.02 0.07 0.13 0.15 0.11 0.08 0.19 0.14 0.19 0.10 0.11 0.14 0.15 0.16 0.20 0.15 0.09 0.08 0.13 0.16 0.28 0.20 0.12 0.23 0.35 0.18 0.07 0.09 0.33 0.11 0.10 0.09 0.12 0.06
0.00 0.02 0.01 0.04 0.07 0.04 0.03 0.05 0.05 0.02 0.05 0.10 0.16 0.13 0.11 0.15 0.12 0.11 0.09 0.04 0.04 0.04 0.03 0.02 0.01 0.02 0.10 0.23 0.17 0.15 0.21 0.15 0.36 0.35 0.10 0.22 0.14 0.17 0.17 0.21 0.23 0.09 0.08
0.01 0.00 0.01 0.03 0.03 0.03 0.10 0.06 0.03 0.04 0.06 0.09 0.10 0.07 0.14 0.15 0.20 0.05 0.03 0.05 0.01 0.02 0.01 0.01 0.01 0.03 0.01 0.10 0.18 0.22 0.20 0.26 0.36 0.17 0.02 0.20 0.28 0.25 0.19 0.13 0.07 0.04 0.06
0.00 0.00 0.01 0.09 0.05 0.04 0.06 0.03 0.05 0.06 0.09 0.08 0.07 0.09 0.14 0.08 0.08 0.03 0.03 0.02 0.00 0.01 0.02 0.05 0.04 0.04 0.07 0.17 0.20 0.27 0.33 0.18 0.10 0.03 0.02 0.29 0.13 0.28 0.07 0.04 0.04 0.07 0.08
0.00 0.00 0.01 0.05 0.05 0.08 0.03 0.06 0.05 0.04 0.05 0.10 0.11 0.10 0.09 0.05 0.05 0.02 0.01 0.00 0.00 0.00 0.00 0.02 0.13 0.09 0.07 0.19 0.17 0.19 0.28 0.17 0.04 0.02 0.11 0.14 0.08 0.18 0.09 0.10 0.07 0.08 0.04
0.00 0.00 0.01 0.02 0.07 0.09 0.08 0.09 0.04 0.06 0.07 0.08 0.06 0.09 0.04 0.02 0.00 0.00 0.00 0.00 0.00 0.00 0.00 0.02 0.04 0.05 0.07 0.11 0.21 0.14 0.24 0.08 0.02 0.01 0.00 0.00 0.11 0.16 0.10 0.09 0.09 0.04 0.06
0.00 0.01 0.00 0.01 0.02 0.03 0.06 0.13 0.04 0.05 0.06 0.09 0.03 0.02 0.03 0.01 0.04 0.03 0.05 0.03 0.00 0.00 0.00 0.02 0.03 0.05 0.10 0.17 0.22 0.18 0.23 0.11 0.01 0.01 0.00 0.01 0.13 0.12 0.06 0.09 0.10 0.07 0.05
0.01 0.00 0.00 0.02 0.01 0.10 0.03 0.08 0.08 0.07 0.07 0.02 0.01 0.06 0.12 0.02 0.02 0.03 0.08 0.03 0.01 0.02 0.05 0.05 0.02 0.06 0.06 0.06 0.15 0.30 0.17 0.02 0.03 0.00 0.00 0.02 0.15 0.08 0.06 0.05 0.05 0.02 0.03
0.00 0.01 0.00 0.00 0.00 0.07 0.02 0.06 0.09 0.02 0.02 0.03 0.05 0.06 0.07 0.04 0.03 0.01 0.06 0.11 0.05 0.07 0.09 0.11 0.07 0.26 0.47 0.16 0.05 0.14 0.09 0.01 0.00 0.00 0.01 0.02 0.06 0.04 0.04 0.02 0.02 0.02 0.03
0.00 0.00 0.00 0.00 0.00 0.01 0.02 0.01 0.03 0.01 0.01 0.02 0.04 0.12 0.05 0.02 0.01 0.01 0.01 0.06 0.07 0.06 0.12 0.34 0.09 0.27 0.88 0.36 0.07 0.05 0.03 0.00 0.00 0.00 0.01 0.01 0.03 0.02 0.02 0.02 0.03 0.02 0.02
0.00 0.00 0.00 0.00 0.01 0.15 0.01 0.00 0.09 0.05 0.02 0.00 0.01 0.03 0.04 0.02 0.01 0.02 0.05 0.08 0.15 0.05 0.07 0.23 0.04 0.04 0.17 0.21 0.03 0.03 0.03 0.03 0.00 0.00 0.00 0.02 0.07 0.03 0.02 0.01 0.02 0.01 0.00
0.00 0.00 0.00 0.00 0.05 0.16 0.03 0.05 0.07 0.03 0.05 0.00 0.00 0.04 0.14 0.03 0.02 0.05 0.10 0.07 0.10 0.08 0.08 0.05 0.02 0.02 0.01 0.00 0.00 0.01 0.01 0.01 0.00 0.00 0.00 0.03 0.07 0.16 0.04 0.02 0.03 0.00 0.00
0.00 0.00 0.00 0.00 0.02 0.05 0.03 0.03 0.02 0.01 0.01 0.00 0.00 0.04 0.21 0.13 0.23 0.29 0.22 0.13 0.09 0.11 0.03 0.01 0.02 0.04 0.01 0.00 0.00 0.00 0.01 0.00 0.00 0.00 0.00 0.03 0.06 0.10 0.11 0.02 0.00 0.00 0.00
0.00 0.00 0.00 0.00 0.00 0.01 0.02 0.03 0.01 0.00 0.01 0.00 0.00 0.00 0.02 0.18 0.28 0.24 0.20 0.23 0.16 0.04 0.01 0.01 0.00 0.00 0.00 0.00 0.00 0.00 0.00 0.00 0.00 0.00 0.00 0.02 0.03 0.05 0.14 0.22 0.07 0.01 0.02
0.00 0.00 0.00 0.00 0.00 0.00 0.00 0.01 0.03 0.00 0.00 0.00 0.00 0.01 0.02 0.10 0.20 0.22 0.15 0.13 0.05 0.02 0.02 0.01 0.01 0.00 0.00 0.00 0.00 0.00 0.00 0.00 0.00 0.00 0.00 0.00 0.00 0.00 0.05 0.14 0.23 0.12 0.13
0.00 0.00 0.00 0.00 0.00 0.00 0.00 0.01 0.01 0.00 0.00 0.01 0.00 0.00 0.01 0.01 0.06 0.39 0.33 0.23 0.10 0.12 0.07 0.02 0.02 0.00 0.00 0.00 0.00 0.00 0.00 0.00 0.00 0.00 0.00 0.00 0.00 0.00 0.00 0.05 0.09 0.09 0.11
0.00 0.00 0.00 0.00 0.00 0.00 0.00 0.00 0.00 0.00 0.00 0.01 0.01 0.00 0.00 0.02 0.08 0.28 0.29 0.28 0.18 0.14 0.23 0.14 0.01 0.00 0.00 0.00 0.00 0.00 0.00 0.00 0.00 0.00 0.00 0.00 0.00 0.00 0.00 0.00 0.02 0.02 0.03
0.00 0.00 0.00 0.00 0.00 0.00 0.00 0.00 0.00 0.00 0.00 0.01 0.02 0.00 0.00 0.03 0.03 0.16 0.21 0.17 0.14 0.09 0.07 0.04 0.00 0.00 0.00 0.00 0.00 0.00 0.00 0.00 0.00 0.00 0.00 0.00 0.00 0.00 0.00 0.00 0.00 0.00 0.00
0.00 0.00 0.00 0.00 0.01 0.00 0.00 0.00 0.00 0.00 0.00 0.00 0.04 0.07 0.00 0.00 0.01 0.04 0.09 0.13 0.17 0.12 0.10 0.09 0.04 0.01 0.00 0.00 0.00 0.00 0.00 0.00 0.00 0.00 0.00 0.00 0.00 0.00 0.00 0.00 0.00 0.00 0.00
0.00 0.00 0.00 0.00 0.00 0.00 0.00 0.00 0.00 0.00 0.00 0.00 0.03 0.02 0.00 0.00 0.00 0.02 0.06 0.11 0.15 0.18 0.10 0.06 0.01 0.00 0.00 0.00 0.00 0.00 0.00 0.00 0.00 0.00 0.00 0.00 0.00 0.00 0.00 0.00 0.00 0.00 0.00
0.00 0.00 0.00 0.00 0.00 0.00 0.00 0.00 0.00 0.00 0.00 0.00 0.00 0.00 0.01 0.00 0.00 0.00 0.07 0.14 0.16 0.17 0.15 0.06 0.01 0.00 0.00 0.00 0.00 0.00 0.00 0.00 0.00 0.00 0.00 0.00 0.00 0.00 0.00 0.00 0.00 0.00 0.00
0.00 0.00 0.00 0.00 0.00 0.00 0.00 0.00 0.00 0.00 0.00 0.00 0.00 0.00 0.02 0.01 0.00 0.00 0.05 0.11 0.10 0.12 0.15 0.11 0.08 0.00 0.01 0.00 0.00 0.00 0.00 0.00 0.00 0.00 0.00 0.00 0.00 0.00 0.00 0.00 0.00 0.00 0.00
0.00 0.00 0.00 0.00 0.00 0.00 0.00 0.00 0.00 0.00 0.00 0.00 0.00 0.00 0.00 0.00 0.01 0.01 0.01 0.02 0.07 0.07 0.10 0.10 0.11 0.03 0.01 0.01 0.00 0.00 0.00 0.00 0.00 0.00 0.00 0.00 0.00 0.00 0.00 0.00 0.00 0.00 0.00

GFSSE_prec_precacc24_063.txt.gz
Total_Precipitation_Accumulation
0.07 0.18 0.28 0.20 0.07 0.05 0.03 0.06 0.13 0.11 0.08 0.01 0.00 0.00 0.00 0.01 0.03 0.02 0.01 0.00 0.00 0.00 0.01 0.01 0.01 0.00 0.00 0.01 0.00 0.00 0.01 0.07 0.19 0.10 0.08 0.08 0.08 0.16 0.09 0.13 0.09 0.02 0.10
0.01 0.10 0.17 0.14 0.14 0.11 0.07 0.07 0.10 0.07 0.06 0.01 0.00 0.01 0.03 0.09 0.09 0.03 0.02 0.13 0.10 0.06 0.03 0.02 0.01 0.00 0.00 0.01 0.01 0.02 0.02 0.06 0.19 0.15 0.18 0.08 0.16 0.24 0.16 0.19 0.15 0.05 0.10
0.00 0.05 0.04 0.22 0.16 0.14 0.07 0.07 0.04 0.02 0.02 0.02 0.05 0.09 0.09 0.07 0.09 0.13 0.03 0.07 0.09 0.09 0.07 0.04 0.04 0.07 0.05 0.05 0.07 0.06 0.09 0.14 0.22 0.48 0.52 0.22 0.11 0.31 0.14 0.08 0.08 0.12 0.05
0.00 0.03 0.01 0.11 0.15 0.10 0.05 0.04 0.05 0.02 0.07 0.13 0.15 0.11 0.08 0.17 0.14 0.19 0.11 0.11 0.15 0.15 0.11 0.08 0.03 0.08 0.09 0.12 0.12 0.20 0.16 0.15 0.23 0.35 0.18 0.07 0.08 0.27 0.11 0.09 0.06 0.09 0.09
0.00 0.02 0.01 0.04 0.07 0.04 0.04 0.05 0.05 0.02 0.05 0.10 0.16 0.12 0.08 0.15 0.12 0.11 0.10 0.04 0.04 0.04 0.03 0.01 0.00 0.02 0.10 0.21 0.16 0.14 0.21 0.17 0.36 0.35 0.10 0.22 0.13 0.17 0.16 0.20 0.22 0.11 0.09
0.01 0.00 0.01 0.03 0.03 0.03 0.10 0.06 0.03 0.04 0.06 0.09 0.11 0.07 0.14 0.15 0.20 0.06 0.04 0.06 0.02 0.02 0.02 0.01 0.01 0.03 0.02 0.08 0.11 0.21 0.39 0.30 0.35 0.17 0.02 0.20 0.28 0.25 0.20 0.13 0.07 0.06 0.07
0.00 0.00 0.00 0.08 0.05 0.05 0.07 0.04 0.05 0.06 0.10 0.09 0.07 0.09 0.15 0.08 0.08 0.05 0.04 0.02 0.01 0.01 0.03 0.05 0.05 0.09 0.17 0.27 0.31 0.35 0.36 0.17 0.10 0.03 0.02 0.29 0.13 0.29 0.09 0.06 0.05 0.07 0.07
0.00 0.00 0.01 0.05 0.05 0.10 0.05 0.07 0.05 0.04 0.06 0.10 0.11 0.12 0.08 0.06 0.05 0.02 0.01 0.00 0.00 0.00 0.00 0.02 0.15 0.17 0.13 0.21 0.18 0.12 0.14 0.17 0.04 0.02 0.11 0.14 0.08 0.19 0.10 0.11 0.07 0.08 0.03
0.00 0.00 0.01 0.01 0.07 0.09 0.10 0.10 0.04 0.06 0.06 0.08 0.07 0.10 0.05 0.02 0.01 0.00 0.00 0.00 0.00 0.00 0.00 0.03 0.06 0.05 0.07 0.11 0.21 0.11 0.11 0.07 0.02 0.00 0.00 0.00 0.14 0.20 0.10 0.08 0.09 0.04 0.05
0.00 0.01 0.00 0.01 0.02 0.03 0.07 0.13 0.04 0.05 0.06 0.09 0.03 0.02 0.03 0.01 0.04 0.03 0.04 0.02 0.00 0.00 0.00 0.04 0.08 0.05 0.09 0.15 0.21 0.19 0.20 0.07 0.01 0.01 0.00 0.01 0.14 0.12 0.06 0.09 0.10 0.07 0.05
0.01 0.00 0.00 0.02 0.01 0.10 0.03 0.09 0.08 0.07 0.07 0.02 0.01 0.06 0.14 0.02 0.02 0.03 0.08 0.03 0.01 0.02 0.05 0.07 0.04 0.05 0.05 0.05 0.10 0.23 0.16 0.01 0.01 0.00 0.00 0.02 0.15 0.08 0.07 0.06 0.05 0.03 0.02
0.00 0.01 0.00 0.00 0.00 0.07 0.02 0.06 0.09 0.02 0.02 0.03 0.05 0.07 0.07 0.04 0.03 0.01 0.06 0.11 0.05 0.08 0.12 0.12 0.07 0.25 0.47 0.16 0.04 0.11 0.08 0.01 0.00 0.00 0.00 0.01 0.05 0.03 0.03 0.02 0.02 0.01 0.03
0.00 0.00 0.00 0.00 0.00 0.01 0.02 0.01 0.03 0.01 0.01 0.02 0.04 0.12 0.05 0.02 0.01 0.01 0.01 0.06 0.08 0.09 0.16 0.34 0.07 0.27 0.88 0.36 0.07 0.05 0.03 0.00 0.00 0.00 0.00 0.00 0.02 0.02 0.02 0.02 0.02 0.01 0.01
0.00 0.00 0.00 0.00 0.01 0.15 0.01 0.00 0.09 0.05 0.02 0.00 0.01 0.04 0.04 0.02 0.01 0.02 0.05 0.08 0.15 0.05 0.06 0.22 0.03 0.03 0.17 0.21 0.03 0.03 0.03 0.03 0.00 0.00 0.00 0.01 0.06 0.02 0.02 0.01 0.02 0.01 0.00
0.00 0.00 0.00 0.00 0.05 0.16 0.03 0.05 0.07 0.03 0.05 0.00 0.00 0.04 0.14 0.03 0.02 0.05 0.09 0.08 0.11 0.08 0.07 0.02 0.02 0.02 0.01 0.00 0.00 0.01 0.01 0.01 0.00 0.00 0.00 0.03 0.07 0.13 0.03 0.02 0.03 0.00 0.00
0.00 0.00 0.00 0.00 0.02 0.05 0.03 0.03 0.02 0.01 0.01 0.00 0.00 0.04 0.21 0.14 0.21 0.26 0.23 0.14 0.09 0.11 0.03 0.01 0.02 0.04 0.01 0.00 0.00 0.00 0.01 0.00 0.00 0.00 0.00 0.02 0.07 0.08 0.07 0.01 0.00 0.00 0.00
0.00 0.00 0.00 0.00 0.00 0.01 0.02 0.03 0.01 0.00 0.02 0.00 0.00 0.00 0.02 0.18 0.26 0.23 0.21 0.23 0.16 0.04 0.01 0.00 0.00 0.00 0.00 0.00 0.00 0.00 0.00 0.00 0.00 0.00 0.00 0.02 0.04 0.05 0.09 0.13 0.05 0.00 0.00
0.00 0.00 0.00 0.00 0.00 0.00 0.01 0.01 0.03 0.00 0.00 0.00 0.00 0.01 0.06 0.11 0.20 0.21 0.15 0.13 0.05 0.02 0.00 0.00 0.01 0.00 0.00 0.00 0.00 0.00 0.00 0.00 0.00 0.00 0.00 0.00 0.00 0.00 0.05 0.09 0.11 0.08 0.07
0.00 0.00 0.00 0.00 0.00 0.00 0.00 0.01 0.01 0.00 0.00 0.01 0.00 0.02 0.06 0.01 0.07 0.39 0.33 0.23 0.10 0.10 0.04 0.00 0.02 0.00 0.00 0.00 0.00 0.00 0.00 0.00 0.00 0.00 0.00 0.00 0.00 0.00 0.00 0.03 0.05 0.06 0.08
0.00 0.00 0.00 0.00 0.00 0.00 0.00 0.01 0.00 0.00 0.00 0.01 0.01 0.04 0.07 0.08 0.13 0.29 0.29 0.27 0.18 0.13 0.18 0.10 0.00 0.00 0.00 0.00 0.00 0.00 0.00 0.00 0.00 0.00 0.00 0.00 0.00 0.00 0.00 0.00 0.01 0.01 0.01
0.00 0.00 0.00 0.00 0.00 0.00 0.00 0.00 0.00 0.00 0.00 0.01 0.04 0.05 0.06 0.05 0.04 0.17 0.21 0.17 0.14 0.09 0.06 0.04 0.00 0.00 0.00 0.00 0.00 0.00 0.00 0.00 0.00 0.00 0.00 0.00 0.00 0.00 0.00 0.00 0.00 0.00 0.00
0.00 0.00 0.00 0.00 0.01 0.00 0.00 0.00 0.00 0.00 0.01 0.02 0.06 0.09 0.02 0.07 0.05 0.04 0.09 0.13 0.17 0.12 0.10 0.09 0.04 0.01 0.00 0.00 0.00 0.00 0.00 0.00 0.00 0.00 0.00 0.00 0.00 0.00 0.00 0.00 0.00 0.00 0.00
0.00 0.00 0.00 0.00 0.00 0.00 0.00 0.00 0.00 0.00 0.00 0.01 0.05 0.02 0.00 0.01 0.01 0.02 0.06 0.11 0.15 0.18 0.10 0.06 0.01 0.00 0.00 0.00 0.00 0.00 0.00 0.00 0.00 0.00 0.00 0.00 0.00 0.00 0.00 0.00 0.00 0.00 0.00
0.00 0.00 0.00 0.00 0.00 0.00 0.00 0.00 0.00 0.00 0.00 0.00 0.01 0.01 0.01 0.01 0.00 0.03 0.07 0.14 0.16 0.17 0.15 0.06 0.01 0.00 0.00 0.00 0.00 0.00 0.00 0.00 0.00 0.00 0.00 0.00 0.00 0.00 0.00 0.00 0.00 0.00 0.00
0.00 0.00 0.00 0.00 0.00 0.00 0.00 0.00 0.00 0.00 0.00 0.00 0.00 0.01 0.02 0.02 0.00 0.03 0.09 0.11 0.10 0.12 0.14 0.11 0.08 0.00 0.01 0.00 0.00 0.00 0.00 0.00 0.00 0.00 0.00 0.00 0.00 0.00 0.00 0.00 0.00 0.00 0.00
0.00 0.00 0.00 0.00 0.00 0.00 0.00 0.00 0.00 0.00 0.00 0.00 0.00 0.00 0.00 0.00 0.01 0.02 0.02 0.03 0.07 0.07 0.10 0.10 0.11 0.03 0.01 0.01 0.00 0.00 0.00 0.00 0.00 0.00 0.00 0.00 0.00 0.00 0.00 0.00 0.00 0.00 0.00

GFSSE_prec_precacc24_069.txt.gz
Total_Precipitation_Accumulation
0.07 0.04 0.23 0.20 0.08 0.04 0.02 0.06 0.13 0.11 0.07 0.01 0.00 0.00 0.00 0.01 0.02 0.00 0.00 0.00 0.01 0.03 0.02 0.01 0.02 0.03 0.03 0.03 0.03 0.02 0.05 0.17 0.20 0.10 0.05 0.09 0.08 0.15 0.11 0.15 0.10 0.02 0.12
0.01 0.02 0.15 0.17 0.13 0.10 0.06 0.06 0.09 0.07 0.06 0.00 0.00 0.01 0.02 0.07 0.03 0.01 0.02 0.12 0.08 0.05 0.09 0.02 0.02 0.04 0.09 0.04 0.03 0.10 0.10 0.16 0.31 0.21 0.16 0.07 0.13 0.21 0.17 0.20 0.16 0.06 0.14
0.00 0.00 0.04 0.22 0.14 0.16 0.06 0.05 0.03 0.02 0.01 0.01 0.01 0.05 0.07 0.04 0.03 0.11 0.03 0.08 0.10 0.08 0.04 0.05 0.08 0.16 0.13 0.10 0.12 0.22 0.21 0.20 0.28 0.50 0.51 0.22 0.12 0.28 0.14 0.08 0.08 0.10 0.05
0.00 0.00 0.01 0.11 0.15 0.16 0.04 0.03 0.05 0.01 0.01 0.05 0.10 0.12 0.09 0.10 0.11 0.22 0.11 0.09 0.11 0.14 0.15 0.05 0.09 0.15 0.13 0.14 0.15 0.10 0.13 0.15 0.23 0.35 0.18 0.08 0.03 0.21 0.11 0.09 0.06 0.08 0.09
0.00 0.00 0.00 0.05 0.08 0.04 0.05 0.04 0.03 0.02 0.04 0.08 0.14 0.09 0.07 0.06 0.06 0.10 0.08 0.06 0.03 0.06 0.09 0.01 0.02 0.06 0.06 0.12 0.23 0.30 0.14 0.16 0.36 0.35 0.08 0.18 0.08 0.15 0.17 0.21 0.22 0.11 0.09
0.00 0.00 0.00 0.02 0.03 0.03 0.09 0.04 0.03 0.05 0.06 0.06 0.09 0.04 0.06 0.07 0.17 0.08 0.08 0.10 0.03 0.03 0.05 0.02 0.03 0.06 0.09 0.20 0.28 0.43 0.47 0.26 0.35 0.17 0.02 0.17 0.22 0.19 0.19 0.13 0.07 0.05 0.06
0.00 0.00 0.00 0.07 0.05 0.04 0.06 0.06 0.06 0.07 0.05 0.08 0.06 0.08 0.14 0.09 0.14 0.18 0.10 0.16 0.11 0.02 0.03 0.06 0.07 0.09 0.17 0.29 0.44 0.44 0.41 0.16 0.10 0.03 0.02 0.27 0.10 0.28 0.07 0.05 0.04 0.05 0.05
0.00 0.00 0.00 0.05 0.05 0.07 0.05 0.06 0.08 0.05 0.05 0.08 0.07 0.10 0.08 0.06 0.17 0.18 0.14 0.06 0.01 0.01 0.00 0.01 0.14 0.19 0.28 0.20 0.21 0.12 0.12 0.17 0.04 0.01 0.07 0.10 0.10 0.24 0.07 0.10 0.06 0.04 0.03
0.00 0.00 0.00 0.01 0.07 0.08 0.08 0.12 0.13 0.12 0.05 0.08 0.07 0.09 0.05 0.05 0.13 0.20 0.07 0.02 0.00 0.01 0.00 0.02 0.12 0.08 0.14 0.11 0.13 0.10 0.08 0.06 0.02 0.00 0.00 0.00 0.18 0.23 0.08 0.08 0.08 0.04 0.03
0.00 0.00 0.00 0.00 0.03 0.04 0.09 0.15 0.06 0.03 0.04 0.09 0.03 0.02 0.05 0.04 0.09 0.05 0.05 0.05 0.01 0.00 0.00 0.04 0.12 0.14 0.27 0.22 0.20 0.16 0.17 0.06 0.01 0.01 0.00 0.00 0.08 0.08 0.04 0.06 0.06 0.05 0.03
0.00 0.00 0.00 0.03 0.02 0.12 0.06 0.11 0.03 0.04 0.07 0.02 0.01 0.06 0.14 0.01 0.00 0.02 0.04 0.04 0.01 0.01 0.01 0.02 0.09 0.20 0.19 0.11 0.10 0.16 0.13 0.01 0.01 0.00 0.00 0.01 0.13 0.13 0.07 0.04 0.03 0.02 0.02
0.00 0.01 0.00 0.00 0.00 0.07 0.03 0.09 0.07 0.02 0.02 0.03 0.05 0.07 0.07 0.04 0.02 0.02 0.03 0.04 0.03 0.03 0.05 0.08 0.06 0.26 0.48 0.18 0.08 0.08 0.08 0.01 0.00 0.00 0.00 0.01 0.06 0.04 0.03 0.02 0.02 0.02 0.02
0.00 0.00 0.00 0.00 0.00 0.01 0.02 0.01 0.03 0.01 0.01 0.02 0.04 0.12 0.05 0.02 0.01 0.03 0.05 0.03 0.08 0.10 0.16 0.34 0.08 0.27 0.88 0.36 0.07 0.05 0.03 0.00 0.00 0.00 0.00 0.00 0.02 0.02 0.02 0.00 0.01 0.01 0.01
0.00 0.00 0.00 0.00 0.01 0.15 0.01 0.00 0.09 0.05 0.02 0.01 0.01 0.04 0.04 0.02 0.01 0.02 0.05 0.07 0.15 0.05 0.06 0.22 0.03 0.04 0.20 0.22 0.03 0.03 0.03 0.03 0.00 0.00 0.00 0.00 0.01 0.02 0.01 0.01 0.01 0.00 0.00
0.00 0.00 0.00 0.00 0.05 0.16 0.03 0.05 0.07 0.03 0.05 0.00 0.00 0.04 0.14 0.03 0.01 0.04 0.09 0.07 0.10 0.07 0.04 0.02 0.02 0.02 0.01 0.01 0.00 0.01 0.01 0.01 0.00 0.00 0.00 0.00 0.00 0.00 0.01 0.01 0.02 0.00 0.00
0.00 0.00 0.00 0.00 0.02 0.05 0.03 0.03 0.02 0.01 0.01 0.00 0.00 0.06 0.22 0.12 0.23 0.22 0.15 0.11 0.08 0.07 0.01 0.01 0.01 0.04 0.01 0.00 0.00 0.00 0.01 0.00 0.00 0.00 0.00 0.00 0.01 0.00 0.00 0.00 0.00 0.00 0.00
0.00 0.00 0.00 0.00 0.00 0.01 0.02 0.03 0.01 0.00 0.02 0.00 0.01 0.04 0.05 0.20 0.30 0.28 0.17 0.15 0.12 0.03 0.01 0.00 0.00 0.00 0.00 0.00 0.00 0.00 0.00 0.00 0.00 0.00 0.00 0.01 0.01 0.00 0.01 0.00 0.00 0.00 0.00
0.00 0.00 0.00 0.00 0.00 0.00 0.01 0.01 0.03 0.00 0.00 0.00 0.00 0.01 0.16 0.26 0.24 0.21 0.16 0.15 0.04 0.01 0.00 0.00 0.00 0.00 0.00 0.00 0.00 0.00 0.00 0.00 0.00 0.00 0.00 0.00 0.00 0.00 0.01 0.00 0.00 0.01 0.00
0.00 0.00 0.00 0.00 0.00 0.00 0.00 0.01 0.01 0.00 0.00 0.01 0.00 0.03 0.14 0.13 0.13 0.49 0.29 0.16 0.09 0.09 0.04 0.00 0.00 0.00 0.00 0.00 0.00 0.00 0.00 0.00 0.00 0.00 0.00 0.00 0.00 0.00 0.00 0.00 0.00 0.00 0.00
0.00 0.00 0.00 0.00 0.00 0.00 0.00 0.01 0.00 0.00 0.00 0.01 0.01 0.04 0.12 0.12 0.22 0.38 0.20 0.17 0.12 0.07 0.16 0.08 0.00 0.00 0.00 0.00 0.00 0.00 0.00 0.00 0.00 0.00 0.00 0.00 0.00 0.00 0.00 0.00 0.00 0.00 0.00
0.00 0.00 0.00 0.00 0.00 0.00 0.00 0.00 0.00 0.00 0.00 0.01 0.04 0.06 0.11 0.07 0.08 0.19 0.23 0.11 0.09 0.04 0.06 0.02 0.00 0.00 0.00 0.00 0.00 0.00 0.00 0.00 0.00 0.00 0.00 0.00 0.00 0.00 0.00 0.00 0.00 0.00 0.00
0.00 0.00 0.00 0.00 0.01 0.00 0.00 0.00 0.00 0.00 0.01 0.02 0.06 0.09 0.04 0.10 0.15 0.04 0.10 0.08 0.10 0.09 0.07 0.08 0.04 0.01 0.00 0.00 0.00 0.00 0.00 0.00 0.00 0.00 0.00 0.00 0.00 0.00 0.00 0.00 0.00 0.00 0.00
0.00 0.00 0.00 0.00 0.00 0.00 0.00 0.00 0.00 0.00 0.00 0.01 0.05 0.04 0.00 0.02 0.07 0.04 0.06 0.10 0.13 0.10 0.03 0.02 0.01 0.00 0.00 0.00 0.00 0.00 0.00 0.00 0.00 0.00 0.00 0.00 0.00 0.00 0.00 0.00 0.00 0.00 0.00
0.00 0.00 0.00 0.00 0.00 0.00 0.00 0.00 0.00 0.00 0.00 0.00 0.01 0.01 0.01 0.01 0.04 0.06 0.07 0.11 0.08 0.13 0.07 0.05 0.01 0.00 0.00 0.00 0.00 0.00 0.00 0.00 0.00 0.00 0.00 0.00 0.00 0.00 0.00 0.00 0.00 0.00 0.00
0.00 0.00 0.00 0.00 0.00 0.00 0.00 0.00 0.00 0.00 0.00 0.00 0.00 0.01 0.02 0.02 0.04 0.08 0.10 0.14 0.06 0.07 0.06 0.09 0.06 0.00 0.01 0.00 0.00 0.00 0.00 0.00 0.00 0.00 0.00 0.00 0.00 0.00 0.00 0.00 0.00 0.00 0.00
0.00 0.00 0.00 0.00 0.00 0.00 0.00 0.00 0.00 0.00 0.00 0.00 0.00 0.00 0.00 0.01 0.07 0.03 0.03 0.11 0.10 0.07 0.11 0.10 0.08 0.02 0.01 0.01 0.00 0.00 0.00 0.00 0.00 0.00 0.00 0.00 0.00 0.00 0.00 0.00 0.00 0.00 0.00

GFSSE_prec_precacc24_072.txt.gz
Total_Precipitation_Accumulation
0.07 0.03 0.17 0.21 0.10 0.04 0.07 0.09 0.13 0.10 0.06 0.01 0.00 0.00 0.00 0.01 0.02 0.00 0.00 0.00 0.01 0.03 0.03 0.03 0.04 0.07 0.04 0.04 0.05 0.04 0.10 0.19 0.16 0.07 0.03 0.05 0.05 0.12 0.10 0.14 0.11 0.03 0.11
0.01 0.02 0.13 0.16 0.11 0.10 0.06 0.06 0.10 0.07 0.06 0.01 0.00 0.01 0.01 0.04 0.02 0.01 0.02 0.12 0.06 0.02 0.12 0.03 0.03 0.04 0.11 0.06 0.06 0.16 0.18 0.18 0.31 0.19 0.11 0.05 0.11 0.18 0.17 0.20 0.11 0.06 0.11
0.00 0.00 0.04 0.22 0.13 0.14 0.05 0.05 0.03 0.01 0.01 0.02 0.02 0.04 0.05 0.04 0.03 0.09 0.04 0.07 0.07 0.06 0.05 0.05 0.08 0.20 0.10 0.10 0.15 0.30 0.21 0.17 0.27 0.43 0.40 0.15 0.10 0.23 0.11 0.05 0.03 0.04 0.04
0.00 0.00 0.00 0.10 0.14 0.14 0.04 0.02 0.02 0.02 0.02 0.04 0.06 0.07 0.07 0.11 0.10 0.15 0.10 0.11 0.12 0.12 0.16 0.05 0.09 0.15 0.12 0.13 0.21 0.13 0.11 0.16 0.23 0.28 0.13 0.05 0.02 0.19 0.10 0.04 0.04 0.07 0.09
0.00 0.00 0.00 0.04 0.07 0.04 0.04 0.04 0.02 0.02 0.03 0.05 0.11 0.08 0.07 0.06 0.06 0.10 0.08 0.06 0.05 0.05 0.09 0.01 0.04 0.08 0.14 0.16 0.26 0.30 0.15 0.17 0.35 0.34 0.06 0.07 0.01 0.12 0.14 0.18 0.22 0.11 0.09
0.00 0.00 0.00 0.02 0.02 0.03 0.04 0.04 0.01 0.04 0.05 0.08 0.11 0.05 0.03 0.07 0.13 0.09 0.09 0.11 0.03 0.05 0.07 0.03 0.06 0.14 0.20 0.30 0.32 0.41 0.47 0.26 0.34 0.16 0.01 0.12 0.15 0.17 0.16 0.13 0.09 0.06 0.06
0.00 0.00 0.00 0.08 0.05 0.02 0.04 0.07 0.06 0.07 0.06 0.11 0.07 0.06 0.12 0.08 0.11 0.18 0.10 0.16 0.11 0.05 0.05 0.05 0.08 0.17 0.24 0.33 0.47 0.42 0.40 0.16 0.10 0.03 0.01 0.16 0.08 0.24 0.06 0.05 0.04 0.05 0.05
0.00 0.00 0.00 0.04 0.06 0.05 0.04 0.06 0.07 0.04 0.06 0.08 0.05 0.10 0.06 0.05 0.15 0.17 0.14 0.06 0.01 0.01 0.00 0.01 0.15 0.28 0.41 0.28 0.18 0.12 0.12 0.17 0.04 0.01 0.03 0.03 0.12 0.23 0.06 0.09 0.05 0.04 0.03
0.00 0.00 0.00 0.01 0.06 0.05 0.09 0.13 0.13 0.12 0.05 0.06 0.03 0.06 0.04 0.04 0.13 0.21 0.07 0.02 0.01 0.03 0.09 0.11 0.22 0.25 0.28 0.12 0.09 0.07 0.08 0.06 0.02 0.01 0.00 0.01 0.19 0.22 0.09 0.06 0.05 0.03 0.04
0.00 0.00 0.00 0.00 0.03 0.04 0.10 0.16 0.06 0.04 0.04 0.05 0.04 0.05 0.14 0.07 0.10 0.05 0.05 0.05 0.01 0.07 0.09 0.13 0.17 0.19 0.33 0.22 0.16 0.14 0.17 0.06 0.01 0.02 0.01 0.01 0.08 0.06 0.03 0.04 0.05 0.06 0.04
0.00 0.00 0.00 0.01 0.01 0.10 0.13 0.14 0.03 0.06 0.09 0.01 0.03 0.12 0.19 0.02 0.00 0.02 0.04 0.04 0.00 0.01 0.00 0.04 0.13 0.22 0.24 0.13 0.09 0.16 0.13 0.01 0.01 0.00 0.00 0.03 0.15 0.12 0.06 0.02 0.02 0.03 0.02
0.00 0.00 0.00 0.00 0.00 0.01 0.03 0.09 0.04 0.01 0.02 0.03 0.05 0.07 0.07 0.04 0.02 0.02 0.03 0.01 0.00 0.03 0.07 0.07 0.08 0.28 0.50 0.21 0.08 0.08 0.08 0.01 0.00 0.00 0.00 0.03 0.07 0.04 0.04 0.01 0.03 0.01 0.01
0.00 0.00 0.00 0.00 0.00 0.01 0.03 0.01 0.02 0.01 0.01 0.02 0.04 0.12 0.05 0.02 0.01 0.03 0.05 0.02 0.08 0.10 0.17 0.34 0.08 0.27 0.88 0.36 0.07 0.05 0.03 0.00 0.00 0.00 0.00 0.01 0.01 0.02 0.01 0.00 0.01 0.00 0.01
0.00 0.00 0.00 0.00 0.02 0.15 0.02 0.00 0.09 0.05 0.02 0.01 0.01 0.04 0.04 0.02 0.01 0.02 0.05 0.07 0.15 0.05 0.06 0.22 0.03 0.04 0.20 0.22 0.03 0.03 0.03 0.03 0.00 0.00 0.00 0.00 0.02 0.01 0.01 0.01 0.01 0.00 0.00
0.00 0.00 0.00 0.00 0.05 0.17 0.03 0.05 0.07 0.03 0.05 0.00 0.00 0.04 0.14 0.03 0.01 0.03 0.07 0.07 0.10 0.07 0.04 0.02 0.02 0.02 0.01 0.01 0.00 0.01 0.01 0.01 0.00 0.00 0.00 0.00 0.00 0.00 0.00 0.01 0.01 0.00 0.00
0.00 0.00 0.00 0.00 0.02 0.05 0.03 0.03 0.02 0.01 0.01 0.00 0.00 0.06 0.23 0.12 0.17 0.16 0.10 0.06 0.06 0.07 0.01 0.01 0.01 0.04 0.01 0.00 0.00 0.00 0.01 0.00 0.00 0.00 0.00 0.00 0.01 0.00 0.00 0.00 0.00 0.00 0.00
0.00 0.00 0.00 0.00 0.00 0.01 0.02 0.03 0.01 0.00 0.02 0.00 0.01 0.04 0.05 0.20 0.25 0.19 0.10 0.08 0.09 0.03 0.01 0.00 0.00 0.00 0.00 0.00 0.00 0.00 0.00 0.00 0.00 0.00 0.00 0.01 0.01 0.00 0.00 0.00 0.00 0.00 0.00
0.00 0.00 0.00 0.00 0.00 0.00 0.01 0.01 0.03 0.00 0.00 0.00 0.00 0.01 0.16 0.30 0.29 0.23 0.14 0.13 0.02 0.01 0.00 0.00 0.00 0.00 0.00 0.00 0.00 0.00 0.00 0.00 0.00 0.00 0.00 0.00 0.00 0.00 0.00 0.00 0.00 0.00 0.00
0.00 0.00 0.00 0.00 0.00 0.00 0.00 0.01 0.01 0.00 0.00 0.01 0.00 0.03 0.14 0.14 0.23 0.58 0.33 0.12 0.02 0.05 0.02 0.00 0.00 0.00 0.00 0.00 0.00 0.00 0.00 0.00 0.00 0.00 0.00 0.00 0.00 0.00 0.00 0.00 0.00 0.00 0.00
0.00 0.00 0.00 0.00 0.00 0.00 0.00 0.01 0.00 0.00 0.00 0.01 0.01 0.04 0.13 0.13 0.30 0.45 0.22 0.09 0.04 0.02 0.10 0.08 0.00 0.00 0.00 0.00 0.00 0.00 0.00 0.00 0.00 0.00 0.00 0.00 0.00 0.00 0.00 0.00 0.00 0.00 0.00
0.00 0.00 0.00 0.00 0.00 0.00 0.00 0.00 0.00 0.00 0.00 0.01 0.04 0.06 0.11 0.08 0.11 0.23 0.21 0.06 0.04 0.02 0.02 0.00 0.00 0.00 0.00 0.00 0.00 0.00 0.00 0.00 0.00 0.00 0.00 0.00 0.00 0.00 0.00 0.00 0.00 0.00 0.00
0.00 0.00 0.00 0.00 0.01 0.00 0.00 0.00 0.00 0.00 0.01 0.03 0.06 0.09 0.04 0.10 0.19 0.06 0.07 0.05 0.06 0.02 0.00 0.00 0.00 0.01 0.00 0.00 0.00 0.00 0.00 0.00 0.00 0.00 0.00 0.00 0.00 0.00 0.00 0.00 0.00 0.00 0.00
0.00 0.00 0.00 0.00 0.00 0.00 0.00 0.00 0.00 0.00 0.02 0.07 0.06 0.04 0.02 0.06 0.08 0.04 0.02 0.05 0.04 0.03 0.00 0.00 0.00 0.00 0.00 0.00 0.00 0.00 0.00 0.00 0.00 0.00 0.00 0.00 0.00 0.00 0.00 0.00 0.00 0.00 0.00
0.00 0.00 0.00 0.00 0.00 0.00 0.00 0.00 0.00 0.00 0.00 0.01 0.01 0.01 0.02 0.04 0.05 0.06 0.01 0.02 0.02 0.03 0.02 0.01 0.00 0.00 0.00 0.00 0.00 0.00 0.00 0.00 0.00 0.00 0.00 0.00 0.00 0.00 0.00 0.00 0.00 0.00 0.00
0.00 0.00 0.00 0.00 0.00 0.00 0.00 0.00 0.00 0.00 0.00 0.02 0.01 0.09 0.08 0.07 0.07 0.08 0.05 0.07 0.03 0.03 0.05 0.03 0.01 0.00 0.01 0.00 0.00 0.00 0.00 0.00 0.00 0.00 0.00 0.00 0.00 0.00 0.00 0.00 0.00 0.00 0.00
0.00 0.00 0.00 0.00 0.00 0.00 0.00 0.00 0.00 0.00 0.00 0.00 0.02 0.08 0.05 0.04 0.10 0.06 0.06 0.12 0.09 0.07 0.12 0.06 0.01 0.02 0.01 0.01 0.00 0.00 0.00 0.00 0.00 0.00 0.00 0.00 0.00 0.00 0.00 0.00 0.00 0.00 0.00

GFSSE_prec_precacc24_075.txt.gz
Total_Precipitation_Accumulation
0.08 0.00 0.09 0.15 0.13 0.05 0.07 0.06 0.05 0.04 0.01 0.00 0.00 0.00 0.00 0.01 0.01 0.00 0.00 0.00 0.01 0.03 0.04 0.04 0.06 0.12 0.09 0.06 0.07 0.07 0.11 0.17 0.08 0.05 0.03 0.04 0.05 0.10 0.13 0.18 0.15 0.04 0.13
0.00 0.00 0.11 0.15 0.11 0.11 0.08 0.06 0.07 0.03 0.01 0.00 0.00 0.01 0.02 0.02 0.01 0.01 0.02 0.08 0.03 0.03 0.13 0.05 0.05 0.05 0.13 0.08 0.09 0.17 0.19 0.19 0.26 0.14 0.08 0.02 0.10 0.19 0.21 0.16 0.05 0.04 0.10
0.00 0.00 0.03 0.18 0.11 0.15 0.07 0.05 0.03 0.01 0.03 0.10 0.04 0.03 0.04 0.03 0.03 0.11 0.04 0.06 0.06 0.05 0.05 0.06 0.07 0.17 0.10 0.09 0.13 0.31 0.20 0.20 0.32 0.41 0.27 0.07 0.08 0.20 0.10 0.05 0.03 0.02 0.04
0.00 0.00 0.00 0.09 0.13 0.15 0.05 0.02 0.02 0.07 0.06 0.10 0.06 0.07 0.07 0.11 0.10 0.14 0.08 0.10 0.09 0.12 0.16 0.06 0.09 0.12 0.08 0.14 0.27 0.11 0.11 0.17 0.24 0.24 0.08 0.04 0.02 0.17 0.10 0.05 0.05 0.07 0.11
0.00 0.00 0.00 0.04 0.07 0.05 0.06 0.02 0.04 0.07 0.03 0.02 0.06 0.05 0.07 0.06 0.05 0.08 0.08 0.06 0.03 0.05 0.09 0.03 0.07 0.08 0.16 0.20 0.27 0.30 0.15 0.16 0.32 0.28 0.04 0.04 0.01 0.07 0.10 0.14 0.17 0.07 0.11
0.00 0.00 0.00 0.02 0.02 0.03 0.05 0.03 0.03 0.05 0.05 0.08 0.10 0.04 0.03 0.04 0.08 0.08 0.08 0.08 0.03 0.06 0.08 0.05 0.06 0.12 0.23 0.30 0.31 0.41 0.47 0.25 0.32 0.14 0.00 0.09 0.08 0.11 0.09 0.08 0.07 0.06 0.06
0.00 0.00 0.01 0.10 0.06 0.03 0.08 0.17 0.16 0.05 0.05 0.12 0.06 0.07 0.12 0.07 0.07 0.17 0.10 0.16 0.12 0.06 0.05 0.02 0.06 0.20 0.26 0.34 0.47 0.42 0.40 0.16 0.10 0.02 0.01 0.05 0.05 0.16 0.04 0.04 0.04 0.05 0.06
0.00 0.00 0.00 0.06 0.06 0.04 0.06 0.15 0.11 0.05 0.06 0.05 0.03 0.10 0.04 0.03 0.13 0.17 0.14 0.07 0.02 0.01 0.00 0.03 0.15 0.38 0.54 0.31 0.18 0.12 0.12 0.16 0.03 0.01 0.03 0.02 0.10 0.17 0.03 0.05 0.06 0.05 0.03
0.00 0.00 0.00 0.01 0.05 0.04 0.11 0.19 0.14 0.11 0.02 0.02 0.02 0.03 0.01 0.03 0.13 0.21 0.08 0.03 0.03 0.03 0.11 0.14 0.24 0.33 0.34 0.11 0.09 0.07 0.08 0.06 0.02 0.02 0.00 0.01 0.17 0.20 0.10 0.04 0.03 0.03 0.06
0.00 0.00 0.00 0.00 0.03 0.04 0.11 0.18 0.08 0.03 0.04 0.02 0.02 0.06 0.17 0.07 0.10 0.06 0.06 0.08 0.10 0.11 0.12 0.14 0.18 0.20 0.33 0.21 0.16 0.14 0.17 0.06 0.01 0.01 0.00 0.00 0.07 0.03 0.02 0.03 0.06 0.05 0.05
0.01 0.00 0.00 0.01 0.01 0.15 0.15 0.14 0.04 0.08 0.04 0.01 0.04 0.12 0.28 0.03 0.00 0.04 0.04 0.05 0.09 0.10 0.01 0.04 0.13 0.23 0.24 0.13 0.08 0.16 0.13 0.01 0.01 0.00 0.00 0.03 0.14 0.12 0.06 0.01 0.01 0.02 0.02
0.00 0.00 0.00 0.01 0.00 0.01 0.03 0.07 0.01 0.01 0.02 0.03 0.05 0.08 0.10 0.04 0.02 0.02 0.03 0.01 0.01 0.04 0.07 0.07 0.08 0.24 0.33 0.16 0.08 0.08 0.08 0.01 0.00 0.00 0.00 0.03 0.06 0.04 0.03 0.02 0.03 0.01 0.01
0.00 0.00 0.00 0.00 0.01 0.02 0.04 0.00 0.02 0.01 0.01 0.02 0.04 0.11 0.05 0.02 0.01 0.03 0.05 0.02 0.08 0.08 0.17 0.35 0.07 0.20 0.61 0.21 0.07 0.05 0.03 0.00 0.00 0.00 0.00 0.01 0.01 0.01 0.01 0.00 0.01 0.00 0.01
0.00 0.00 0.00 0.00 0.02 0.16 0.02 0.00 0.09 0.05 0.02 0.01 0.01 0.04 0.04 0.02 0.01 0.02 0.05 0.07 0.15 0.05 0.05 0.22 0.03 0.04 0.19 0.21 0.03 0.02 0.03 0.02 0.00 0.00 0.00 0.00 0.02 0.01 0.00 0.01 0.00 0.00 0.00
0.00 0.00 0.00 0.00 0.05 0.17 0.03 0.05 0.07 0.03 0.05 0.00 0.00 0.04 0.14 0.02 0.01 0.03 0.07 0.07 0.10 0.07 0.04 0.02 0.02 0.02 0.01 0.01 0.00 0.01 0.01 0.01 0.00 0.00 0.00 0.00 0.00 0.00 0.00 0.00 0.00 0.00 0.00
0.00 0.00 0.00 0.00 0.02 0.06 0.03 0.03 0.02 0.01 0.01 0.00 0.00 0.06 0.23 0.08 0.16 0.15 0.10 0.06 0.06 0.06 0.00 0.00 0.02 0.04 0.01 0.00 0.00 0.00 0.01 0.00 0.00 0.00 0.00 0.00 0.01 0.00 0.00 0.00 0.00 0.00 0.00
0.00 0.00 0.00 0.00 0.00 0.01 0.02 0.03 0.01 0.00 0.02 0.00 0.02 0.04 0.05 0.17 0.25 0.19 0.10 0.08 0.09 0.03 0.01 0.00 0.00 0.00 0.00 0.00 0.00 0.00 0.00 0.00 0.00 0.00 0.00 0.01 0.01 0.00 0.00 0.00 0.00 0.00 0.00
0.00 0.00 0.00 0.00 0.00 0.00 0.01 0.01 0.03 0.00 0.00 0.00 0.00 0.01 0.16 0.25 0.25 0.22 0.14 0.13 0.02 0.01 0.00 0.00 0.00 0.00 0.00 0.00 0.00 0.00 0.00 0.00 0.00 0.00 0.00 0.00 0.00 0.00 0.00 0.00 0.00 0.00 0.00
0.00 0.00 0.00 0.00 0.00 0.00 0.00 0.01 0.01 0.00 0.00 0.01 0.00 0.03 0.14 0.14 0.22 0.47 0.30 0.10 0.02 0.05 0.02 0.00 0.00 0.00 0.00 0.00 0.00 0.00 0.00 0.00 0.00 0.00 0.00 0.00 0.00 0.00 0.00 0.00 0.00 0.00 0.00
0.00 0.00 0.00 0.00 0.00 0.00 0.00 0.01 0.00 0.00 0.00 0.01 0.01 0.05 0.13 0.15 0.32 0.40 0.20 0.09 0.04 0.02 0.06 0.02 0.00 0.00 0.00 0.00 0.00 0.00 0.00 0.00 0.00 0.00 0.00 0.00 0.00 0.00 0.00 0.00 0.00 0.00 0.00
0.00 0.00 0.00 0.00 0.00 0.00 0.00 0.00 0.00 0.00 0.00 0.01 0.05 0.06 0.11 0.10 0.14 0.21 0.19 0.06 0.04 0.02 0.01 0.00 0.00 0.00 0.00 0.00 0.00 0.00 0.00 0.00 0.00 0.00 0.00 0.00 0.00 0.00 0.00 0.00 0.00 0.00 0.00
0.00 0.00 0.00 0.00 0.01 0.00 0.00 0.00 0.00 0.00 0.01 0.04 0.07 0.09 0.04 0.11 0.20 0.07 0.07 0.04 0.03 0.00 0.00 0.00 0.00 0.01 0.00 0.00 0.00 0.00 0.00 0.00 0.00 0.00 0.00 0.00 0.00 0.00 0.00 0.00 0.00 0.00 0.00
0.00 0.00 0.00 0.00 0.00 0.00 0.00 0.00 0.00 0.02 0.05 0.12 0.08 0.04 0.02 0.14 0.09 0.04 0.02 0.04 0.04 0.03 0.00 0.00 0.00 0.01 0.00 0.00 0.00 0.00 0.00 0.00 0.00 0.00 0.00 0.00 0.00 0.00 0.00 0.00 0.00 0.00 0.00
0.00 0.00 0.00 0.00 0.00 0.00 0.00 0.00 0.00 0.00 0.00 0.01 0.01 0.01 0.02 0.05 0.06 0.06 0.00 0.02 0.02 0.03 0.03 0.01 0.00 0.01 0.00 0.00 0.00 0.00 0.00 0.00 0.00 0.00 0.00 0.00 0.00 0.00 0.00 0.00 0.00 0.00 0.00
0.00 0.00 0.00 0.00 0.00 0.00 0.00 0.01 0.00 0.00 0.01 0.02 0.01 0.11 0.10 0.07 0.07 0.08 0.05 0.07 0.03 0.03 0.04 0.01 0.00 0.00 0.01 0.00 0.00 0.00 0.00 0.00 0.00 0.00 0.00 0.00 0.00 0.00 0.00 0.00 0.00 0.00 0.00
0.00 0.00 0.00 0.00 0.00 0.00 0.00 0.00 0.00 0.00 0.01 0.00 0.07 0.11 0.06 0.04 0.10 0.06 0.06 0.15 0.14 0.09 0.10 0.04 0.00 0.02 0.02 0.01 0.00 0.00 0.00 0.00 0.00 0.00 0.00 0.00 0.00 0.00 0.00 0.00 0.00 0.00 0.00